Location: ????
(30.2663°N, 31.2484°E)
Time: 09:00:15
(UTC+00:00)

ATLAS CENTAUR R/B - Pass Details

Date: 27 September 2022
Orbit: 442 x 677 km, 64.7° (Epoch: 25 November)

Event Time Altitude Azimuth Distance (km) Brightness Sun altitude
Exits shadow 01:44:30 49° 142° (SE) 855 2.3 -26.8°
Maximum altitude 01:45:07 53° 114° (ESE) 819 2.3 -26.7°
Drops below altitude 10° 01:49:49 10° 38° (NE) 2,115 4.9 -25.7°
Enters shadow 02:50:05 -60° 211° (SSW) 11,596 8.0 -12.9°
